Location: Cold Norton
(51.6667°N, 0.6667°E)
Time: 16:03:40
(UTC+00:00)

USA 215 - Pass Details

Date: 18 November 2025
Orbit: 1101 x 1106 km, 123.0° (Epoch: 12 December)

Event Time Altitude Azimuth Distance (km) Brightness Sun altitude
Rises 17:46:58 0° 142° (SE) 3,912 5.9 -15.8°
Reaches altitude 10° 17:49:33 10° 148° (SSE) 2,957 5.3 -16.2°
Maximum altitude 17:55:50 49° 222° (SW) 1,397 4.1 -17.1°
Drops below altitude 10° 18:02:11 10° 296° (WNW) 2,973 6.3 -18.1°
Sets 18:04:47 0° 302° (WNW) 3,934 7.0 -18.5°
